Regional Weather Roundup
Issued by NWS Cleveland, OH

Home | Current Version | Previous Version | Graphics & Text | Print | Product List | Glossary On
Versions: 1 2 3 4 5 6 7 8 9 10 11 12 13 14 15 16 17 18 19 20 21 22 23 24 25 26 27 28 29 30 31 32 33 34 35 36 37 38 39 40 41 42 43 44 45 46 47 48 49 50
000
ASUS41 KCLE 242010
RWRCLE
OHIO REGIONAL WEATHER ROUNDUP
NATIONAL WEATHER SERVICE WILMINGTON, OH
400 PM EDT WED AUG 24 2016

NOTE: "FAIR" INDICATES FEW OR NO CLOUDS BELOW 12,000 FEET WITH NO
SIGNIFICANT WEATHER AND/OR OBSTRUCTIONS TO VISIBILITY.

OHZ001>008-015>018-024>027-034-035-043-044-242100-
   NORTHWEST OHIO

CITY           SKY/WX    TMP DP  RH WIND       PRES   REMARKS
DEFIANCE       LGT RAIN  80  72  76 S14G22    30.01F
FINDLAY        FAIR      84  70  62 S17G24    30.05F
TOLEDO EXPRESS FAIR      81  73  76 S9G18     30.01F
TOLEDO EXEC    PTSUNNY   84  72  67 S16       30.02F
LIMA           PTSUNNY   80  72  76 S12       30.07F
$$

OHZ009>014-019>023-028>033-038-089-242100-
   NORTHEAST OHIO

CITY           SKY/WX    TMP DP  RH WIND       PRES   REMARKS
CLE-HOPKINS    PTSUNNY   86  64  47 S15G22    30.10F
CLE-LAKEFRONT  FAIR      87  63  44 S12       30.06F
CUY CO. ARPT   CLOUDY    88  66  48 S13G22    30.10F HX  90
LORAIN-ELYRIA  FAIR      84  65  52 SW17      30.08F
ASHTABULA      FAIR      83  60  45 S10       30.12F
AKRON-CANTON   PTSUNNY   82  63  52 SW15      30.13F
WOOSTER        FAIR      81  67  62 S14       30.13F
MANSFIELD      FAIR      82  67  60 S16       30.11F
YOUNGSTOWN     PTSUNNY   84  57  39 S7        30.13F
$$

OHZ042-051>053-060>062-070>072-077>081-242100-
  SOUTHWEST OHIO

CITY           SKY/WX    TMP DP  RH WIND       PRES   REMARKS
CINC-COVINGTON NOT AVBL
CINC-LUNKEN    FAIR      86  75  69 S9        30.09F HX  95
HAMILTON       FAIR      87  72  60 S7        30.09F HX  93
DAYTON         CLOUDY    83  71  67 S14       30.10F
WRIGHT-PAT AFB FAIR      83  73  71 S12       30.09F
DAYTON GENERAL PTSUNNY   82  71  69 S10       30.10F
WILMINGTON     PTSUNNY   81  73  76 S12       30.12F
$$

OHZ036-037-039>041-045>050-054>059-063>069-073>076-082>088-242100-
  CENTRAL AND SOUTHEAST OHIO

CITY           SKY/WX    TMP DP  RH WIND       PRES   REMARKS
COLUMBUS       CLOUDY    82  69  64 S13       30.10F
OSU AIRPORT    FAIR      83  70  64 S15       30.10F
BOLTON FIELD   PTSUNNY   82  72  69 S14       30.12F
RICKENBACK AFB PTSUNNY   83  70  63 S12       30.11F
NEWARK         PTSUNNY   84  68  58 S13       30.12F
MARION         FAIR      83  70  64 S17       30.09F
LANCASTER      FAIR      84  70  62 S13       30.13F
ZANESVILLE     CLOUDY    84  66  54 S10       30.14F
NEW PHILLY     FAIR      86  64  47 SW8       30.14F
$$




USA.gov is the U.S. government's official web portal to all federal, state and local government web resources and services.